Vorticity
nan nan nan nan nan nan nan nan nan nan nan nan nan nan nan nan nan nan nan nan nan nan nan nan nan nan nan nan nan nan nan nan nan nan nan nan nan nan nan nan nan nan nan nan nan
nan 6 7 7 7 7 7 7 7 8 8 8 7 8 8 11 17 16 20 15 10 4 1 5 5 7 4 8 7 9 0 -3 11 7 10 16 7 -0 12 3 8 21 16 8 nan
nan 7 6 6 7 8 7 8 8 8 8 8 8 9 9 14 14 16 24 24 8 -1 -0 5 6 5 4 6 4 2 -0 13 9 14 13 2 6 8 7 9 12 13 6 5 nan
nan 6 6 6 7 8 7 8 9 9 8 10 10 11 14 13 6 12 13 13 8 3 6 8 8 5 6 6 6 6 5 11 6 8 9 13 6 7 9 18 15 9 7 6 nan
nan 6 6 7 7 7 8 9 9 9 10 12 11 14 16 9 5 11 8 7 7 10 10 7 8 5 5 6 6 4 6 8 10 7 7 9 9 6 14 15 12 9 7 5 nan
nan 7 7 7 7 8 8 9 9 9 11 12 14 15 9 2 16 12 1 4 7 11 8 6 5 6 6 4 8 11 5 -1 11 10 6 4 9 9 7 10 9 8 6 5 nan
nan 7 7 7 7 7 9 9 9 10 10 12 18 10 9 5 8 3 5 6 7 8 3 7 7 7 4 5 6 5 11 10 9 8 7 6 5 12 11 6 8 7 6 6 nan
nan 7 7 7 7 7 9 10 9 10 11 12 15 9 5 16 10 6 10 8 6 4 6 9 8 5 7 11 6 11 9 12 12 3 8 6 5 13 10 8 6 8 6 7 nan
nan 7 6 7 7 8 9 10 17 23 14 10 9 6 6 11 14 17 11 6 9 3 4 6 11 13 8 9 11 11 13 1 12 11 7 9 6 8 8 8 8 8 7 6 nan
nan 7 7 7 8 7 16 23 29 25 11 2 1 3 3 -1 10 16 7 10 9 10 5 6 9 10 10 8 7 7 8 12 12 6 2 -1 13 5 13 8 8 8 8 7 nan
nan 7 7 8 8 12 19 29 27 6 -2 3 5 -1 -4 7 6 9 14 14 8 11 11 6 4 10 8 3 2 4 5 12 3 14 -1 7 5 3 9 6 9 8 8 8 nan
nan 8 7 8 9 21 15 14 12 6 10 12 10 9 9 8 8 11 14 12 10 7 10 5 5 7 8 7 5 4 5 7 -1 5 16 14 3 17 6 5 8 8 9 8 nan
nan 7 8 10 24 27 11 3 6 13 11 15 29 25 23 16 10 5 9 9 7 11 7 6 5 7 7 9 8 6 6 7 18 2 9 11 14 9 7 7 7 9 9 9 nan
nan 7 7 22 22 12 11 -0 10 12 15 26 21 15 21 14 16 12 9 9 8 11 8 6 11 6 6 7 9 9 6 12 2 -1 21 11 -1 15 12 6 7 8 8 10 nan
nan 7 15 18 14 3 3 6 13 13 12 14 7 8 13 4 17 30 11 4 13 4 6 8 11 9 8 8 4 6 8 7 1 -2 3 7 16 15 10 16 6 7 8 9 nan
nan 6 17 24 13 -1 -1 14 17 13 9 6 5 7 11 14 2 16 23 5 10 12 6 6 6 11 8 8 8 6 8 12 8 9 8 3 8 15 21 8 10 5 8 11 nan
nan 9 19 16 4 9 13 17 12 2 4 4 5 3 2 9 18 17 11 12 8 7 10 12 11 7 11 8 13 7 6 11 11 6 10 10 5 3 16 16 13 6 15 10 nan
nan 28 25 13 6 6 14 14 4 1 3 7 12 5 5 3 8 13 14 12 7 4 7 11 13 16 6 10 7 11 3 4 6 5 6 8 6 13 14 11 11 17 18 12 nan
nan 28 17 15 4 9 14 11 6 -2 6 11 10 16 13 14 8 10 12 15 13 6 3 7 8 13 12 9 7 9 8 2 7 9 5 13 3 10 14 4 -5 22 26 11 nan
nan 16 22 5 5 12 11 1 6 13 12 14 12 6 7 9 21 17 7 11 12 15 9 -3 12 14 14 6 12 8 9 9 8 7 10 12 6 6 9 -1 -4 19 26 12 nan
nan 12 17 3 10 14 11 12 6 7 9 7 7 5 6 5 7 12 18 6 17 27 16 7 3 15 16 13 4 8 8 6 5 6 11 10 16 16 9 10 11 7 0 8 nan
nan 10 4 9 15 14 6 5 4 4 7 11 11 10 8 7 7 9 8 1 2 11 31 31 12 9 15 22 9 3 8 3 11 7 -0 6 3 18 14 4 7 17 15 12 nan
nan 14 9 5 7 5 10 5 5 11 10 9 11 12 14 12 11 8 5 4 -1 6 15 21 25 17 19 16 19 10 6 8 1 8 7 9 2 5 17 18 10 8 11 8 nan
nan 13 10 9 8 2 6 8 13 9 6 10 11 11 11 17 15 8 7 8 6 2 5 7 11 14 13 11 17 14 8 7 3 7 6 3 5 1 14 26 15 6 8 11 nan
nan 7 8 7 2 6 11 11 9 8 14 8 10 16 12 10 17 19 17 6 6 11 4 6 8 12 10 13 10 14 11 7 5 4 5 7 16 6 4 5 7 13 6 11 nan
nan 9 8 12 8 10 10 15 8 5 10 10 9 13 16 12 2 -0 17 27 16 16 8 11 11 15 16 13 18 18 10 10 10 6 6 8 9 4 15 23 8 -1 2 8 nan
nan nan nan nan nan nan nan nan nan nan nan nan nan nan nan nan nan nan nan nan nan nan nan nan nan nan nan nan nan nan nan nan nan nan nan nan nan nan nan nan nan nan nan nan nan
CAPE
0 0 0 0 0 0 0 0 0 0 0 0 0 0 0 0 0 0 0 0 0 858 641 0 18 205 44 28 63 73 275 92 22 80 17 69 13 407 185 375 370 254 294 269 325
0 0 0 0 0 0 1 1 1 0 0 0 0 0 0 0 0 0 0 176 670 943 0 0 0 0 3 33 24 37 124 44 0 72 34 26 4 0 29 177 276 439 357 276 309
0 0 1 0 0 0 1 1 1 0 0 0 0 0 0 0 0 0 151 511 481 338 0 0 0 0 1 5 1 34 14 33 2 0 85 46 0 0 60 181 175 399 266 214 232
0 0 0 0 0 0 0 1 1 0 0 0 0 1 0 0 0 0 58 660 637 0 0 0 0 0 0 0 0 0 3 3 2 0 102 17 0 27 11 190 157 318 231 230 196
0 0 0 0 0 0 0 0 0 0 0 0 0 1 0 0 0 0 167 171 0 0 0 0 0 0 0 0 6 1 0 2 0 0 48 24 0 0 178 227 145 220 177 209 158
2 2 2 1 1 0 0 0 0 0 0 0 0 0 0 0 0 0 0 0 0 0 0 0 0 0 0 0 3 1 0 0 7 0 74 9 34 1 0 215 142 170 128 151 109
3 3 3 2 1 1 0 0 0 0 0 0 0 0 0 0 0 0 0 0 0 0 0 0 0 0 0 0 0 0 0 0 8 0 10 44 0 69 19 162 227 176 157 110 85
4 3 3 2 1 0 0 0 0 0 0 0 0 0 0 0 0 0 0 0 0 0 0 0 0 0 0 0 0 0 0 0 7 0 0 3 53 211 10 123 317 213 155 92 7
4 4 3 1 0 0 0 0 0 0 0 0 0 0 0 0 0 0 0 0 0 0 0 0 0 0 0 0 0 0 0 0 71 0 5 103 268 10 13 79 229 300 162 73 11
5 4 2 0 0 0 0 0 0 0 0 0 0 0 0 0 0 0 0 0 0 0 0 0 0 0 0 0 0 0 0 8 103 90 149 322 21 109 39 14 119 260 196 110 3
4 4 1 0 0 0 0 0 0 0 0 0 0 0 0 0 0 0 0 0 0 0 0 0 0 0 0 0 0 0 0 8 233 61 224 201 0 235 201 92 33 147 270 224 185
4 3 0 0 0 0 0 0 0 0 0 0 0 0 0 0 0 0 0 0 0 0 0 0 0 0 0 0 0 0 0 30 112 140 169 496 439 377 223 288 204 81 200 295 278
2 1 0 0 0 0 0 0 0 0 0 0 0 0 0 0 0 0 0 0 0 0 0 0 0 0 0 0 0 0 0 0 99 33 94 180 397 729 424 161 450 295 207 251 345
1 1 0 0 0 0 0 0 0 0 0 0 0 0 0 0 0 0 0 0 0 0 0 0 0 0 0 0 0 0 0 0 38 48 60 185 290 265 912 455 192 508 347 223 372
1 0 0 0 0 0 0 0 0 0 0 0 0 0 0 0 0 0 0 0 0 0 0 0 0 0 0 0 0 0 0 0 0 128 115 8 25 162 367 788 383 281 538 410 321
0 0 0 0 0 0 0 0 0 0 0 0 0 0 0 0 0 0 0 0 0 0 0 0 0 0 0 0 0 0 0 0 0 5 137 32 63 199 188 418 385 351 401 737 366
0 0 0 0 0 0 0 0 0 0 1 0 0 0 0 0 0 0 0 0 0 0 0 0 0 0 0 0 0 0 0 0 4 13 0 130 180 190 122 61 135 259 464 780 906
0 0 0 0 0 0 0 0 0 0 0 0 0 0 0 0 0 0 0 0 0 0 0 0 0 0 0 0 0 0 0 0 22 17 14 17 52 0 119 134 29 0 345 644 677
0 0 0 0 0 0 0 0 0 0 0 0 0 0 0 0 0 0 0 0 0 0 0 0 0 0 0 0 0 0 0 0 14 79 73 10 34 350 109 21 5 1 445 460 683
0 0 0 0 0 0 0 0 0 0 0 0 0 0 0 0 0 0 0 0 0 0 0 0 0 0 0 0 0 0 0 0 0 8 128 73 188 117 323 200 35 38 78 614 769
0 0 0 0 0 0 0 0 0 0 0 0 0 0 0 0 0 0 0 0 0 0 0 0 0 0 0 0 0 0 0 0 0 2 101 209 104 292 545 426 229 186 57 93 231
0 0 0 0 0 0 14 0 0 0 0 0 0 0 0 0 0 0 0 0 0 0 0 0 0 0 0 0 0 0 0 0 0 0 2 123 90 57 205 81 187 44 157 43 27
0 0 2 0 0 0 0 0 0 0 0 0 0 0 0 0 0 0 0 0 0 0 0 0 0 0 3 1 0 0 0 0 0 0 78 95 43 1 0 63 252 165 36 198 285
9 1 2 5 1 1 0 0 0 0 0 0 0 0 0 0 0 0 0 0 0 0 14 0 0 0 0 0 0 0 0 0 0 0 2 0 103 6 60 169 276 56 402 430 1190
12 6 8 1 15 16 0 4 17 12 0 0 1 4 0 5 0 0 0 0 0 0 0 0 0 0 0 0 2 0 0 0 0 0 0 7 53 0 182 28 21 302 758 608 750
35 19 10 18 13 41 22 29 39 51 79 117 25 40 15 10 1 1 31 12 0 0 0 0 0 0 0 0 0 0 0 0 0 0 0 13 119 78 121 219 42 255 457 999 1071
16 19 19 2 8 61 68 42 45 94 99 107 80 54 13 2 2 12 1 0 4 2 0 0 0 0 0 0 1 11 0 0 0 0 0 0 60 56 124 165 312 206 284 527 963